Theta_e
314 312 309 313 312 314 313 313 313 313 312 311 310 311 310 310 310 308 306 305 304 305 303 301 301 301 300 301 302 303 303 303 303 303 303 304 304 304 306 307 308 308 310 318
312 310 314 313 312 313 314 314 313 309 311 310 310 311 310 309 311 309 307 306 305 305 301 301 301 300 300 301 302 303 303 302 302 302 302 303 303 304 305 307 309 311 312 320
312 313 312 312 311 312 314 312 310 309 311 311 310 309 315 312 312 309 308 307 307 304 301 300 300 300 300 301 302 302 302 302 302 304 303 305 305 306 306 308 309 312 315 321
312 310 311 310 312 310 311 312 311 311 311 310 309 310 304 312 312 311 309 307 306 301 300 300 299 299 300 301 302 302 302 301 301 304 304 309 309 310 312 314 312 314 316 322
310 310 310 311 311 309 311 309 310 311 311 312 310 306 307 311 312 311 309 308 303 299 299 299 298 299 300 301 301 302 301 301 301 303 304 308 313 315 316 318 318 317 319 322
310 308 309 310 308 309 309 311 311 311 311 308 307 309 308 308 309 309 310 307 301 299 299 299 298 298 300 301 301 302 301 300 300 302 303 307 309 311 314 317 318 319 320 323
311 310 308 308 310 309 310 309 309 311 309 311 312 309 309 312 310 309 309 304 300 298 298 297 297 297 299 300 300 301 301 300 300 300 301 304 306 308 311 312 313 316 316 318
310 311 309 307 309 310 309 309 312 312 315 311 308 310 308 309 309 308 306 302 299 298 298 297 297 297 299 300 300 301 301 300 299 300 299 302 303 305 306 307 308 309 310 309
312 312 308 307 307 308 310 310 308 308 303 308 306 307 307 307 307 305 302 300 299 298 296 296 296 297 299 300 300 300 301 300 299 300 299 300 301 302 303 304 305 305 306 307
310 313 309 307 307 307 308 307 306 304 305 311 310 309 307 308 306 306 305 302 299 297 295 295 295 297 299 300 300 301 301 300 299 300 299 299 300 301 301 303 302 302 303 306
309 310 309 308 308 308 307 307 309 307 308 311 310 308 304 307 307 306 305 304 300 296 295 294 295 297 299 299 299 299 300 302 301 299 302 301 299 301 304 303 304 306 308 308
309 309 307 309 306 306 305 306 307 308 308 307 310 308 306 306 307 305 304 304 299 296 294 293 295 296 298 299 299 299 299 300 300 300 301 300 299 297 298 301 301 304 304 303
307 304 301 305 306 304 307 307 307 305 304 308 308 307 305 306 307 306 304 303 298 295 293 293 293 295 296 298 298 298 298 299 300 300 300 299 298 298 296 297 297 297 296 296
307 308 307 309 312 305 306 306 307 307 307 307 308 307 306 304 305 305 304 302 297 296 295 294 293 293 296 297 298 298 298 298 299 299 299 298 297 297 298 297 297 298 297 297
307 303 304 305 305 305 305 307 306 308 309 308 308 308 309 307 302 303 303 302 297 296 295 294 293 292 295 296 297 297 297 297 299 299 299 297 296 296 296 296 296 295 295 295
306 308 301 299 304 303 305 303 305 306 308 308 308 308 308 304 302 301 302 303 299 298 297 295 294 294 294 296 297 297 297 297 298 298 298 297 296 295 295 294 294 294 293 293
307 307 306 311 301 298 302 301 304 306 305 307 308 309 307 306 305 305 303 304 302 299 297 296 295 295 294 295 297 297 297 297 296 296 296 295 295 294 293 293 292 292 291 290
304 306 307 303 300 309 309 302 303 306 307 307 307 309 309 308 307 304 303 304 305 300 298 297 296 295 295 295 296 297 297 296 296 295 295 295 294 293 292 292 291 291 290 290
303 305 304 305 298 306 310 308 303 303 307 305 307 307 307 306 305 305 302 302 304 303 298 298 297 296 295 295 296 296 296 296 295 295 294 294 293 292 292 291 290 290 290 290
303 304 310 302 301 305 308 302 300 302 310 306 304 305 305 302 306 306 303 301 303 303 299 298 296 296 295 295 296 295 295 295 295 294 294 293 293 292 291 290 290 290 290 290
307 307 311 303 306 303 303 300 299 308 313 301 300 302 303 304 305 302 300 301 301 301 298 297 296 295 295 294 295 294 294 294 295 295 294 293 292 292 291 290 290 290 290 290
308 308 309 309 311 309 301 298 305 305 301 298 299 301 303 302 301 300 301 301 299 298 297 296 296 295 295 294 294 293 293 295 295 294 293 293 292 291 290 290 290 289 289 289
307 305 305 308 308 303 296 302 299 297 299 298 298 298 299 301 301 300 299 301 299 296 296 296 296 294 294 294 294 292 293 294 294 294 293 292 292 291 290 289 289 289 289 289
300 302 303 305 304 303 300 299 296 297 296 296 296 297 298 298 300 299 297 296 296 295 294 295 294 293 293 293 293 294 293 294 294 293 293 292 291 290 290 289 289 289 289 288
300 302 301 301 301 301 302 300 301 301 297 295 294 295 296 296 296 297 296 294 294 294 295 295 294 293 293 293 293 293 293 294 293 293 292 292 291 290 290 289 289 289 290 290
298 301 305 306 303 305 307 304 302 299 299 298 296 295 293 294 294 295 295 294 293 294 295 294 294 293 293 293 293 293 293 293 292 291 290 290 290 289 289 289 288 288 289 289
Wind_Speed
1 3 4 6 5 2 1 1 2 1 2 3 6 14 14 9 11 8 8 7 5 3 3 8 11 15 19 22 27 29 28 28 26 24 22 19 17 17 18 19 16 19 22 16
4 3 1 6 4 3 3 2 3 4 3 0 6 19 15 10 10 10 10 6 5 1 4 7 11 17 20 24 28 28 29 28 27 24 27 21 19 18 18 18 16 17 20 16
4 3 3 2 1 2 2 3 2 3 6 4 7 9 5 4 4 7 5 6 4 4 3 5 11 15 18 23 29 27 28 28 27 27 29 22 13 12 13 14 16 15 19 19
3 3 4 2 3 4 1 2 4 2 4 2 4 5 5 4 2 5 7 5 5 6 4 4 8 12 16 21 25 26 28 28 29 25 26 22 7 10 10 10 10 8 18 23
3 5 3 3 2 3 3 2 2 1 1 3 4 3 7 2 5 8 8 7 7 6 5 4 6 10 14 19 25 24 25 26 28 25 24 23 13 10 10 6 8 9 16 21
2 1 2 2 3 4 5 2 2 2 1 2 4 4 6 3 5 3 4 6 8 7 6 4 5 9 13 18 24 23 25 25 28 24 26 24 21 19 22 16 14 8 16 19
2 2 2 3 3 3 2 3 3 4 3 4 2 2 10 6 6 5 8 9 8 7 5 3 4 7 12 17 22 21 23 25 26 25 26 25 20 26 26 18 20 19 22 18
5 3 6 4 3 4 4 4 4 5 1 4 2 6 6 4 5 4 8 9 8 7 5 5 3 5 9 14 18 21 22 23 26 25 26 27 26 30 28 26 28 26 29 28
5 1 1 3 3 2 3 3 1 4 2 3 4 7 6 2 4 6 9 8 8 7 6 6 4 5 7 10 14 18 22 26 26 26 24 28 27 28 31 34 35 31 31 36
1 4 1 0 2 2 2 2 3 3 1 4 5 5 6 6 9 7 9 10 8 7 7 6 6 5 6 7 10 16 21 25 24 29 25 26 28 30 33 38 36 36 38 42
2 3 1 2 6 8 2 2 2 2 4 4 2 6 6 5 10 14 11 10 10 10 9 7 8 7 6 7 8 11 17 25 26 27 30 30 29 33 40 40 40 43 45 43
3 4 4 7 1 2 4 7 5 4 4 2 1 7 2 5 4 8 8 9 8 10 9 8 10 11 7 7 7 8 11 20 21 24 26 27 28 27 31 34 34 38 40 38
6 1 2 7 4 3 4 5 4 3 3 6 5 5 1 3 3 4 8 8 9 10 9 8 9 11 10 9 8 8 8 14 17 21 24 26 26 27 29 30 30 32 33 32
6 3 6 6 1 4 5 6 7 6 3 4 9 7 5 6 7 7 6 9 12 13 13 9 7 11 14 12 11 11 9 11 16 18 21 21 21 23 25 26 28 28 28 29
5 6 4 5 6 4 6 5 9 13 19 8 4 16 19 14 11 12 11 9 12 13 13 12 11 9 18 16 15 14 12 13 15 17 17 17 15 16 19 22 23 24 25 26
2 2 3 4 5 8 8 9 14 17 19 19 18 25 16 11 6 7 10 13 15 16 16 14 13 15 18 22 20 18 17 16 17 18 17 16 14 13 15 17 19 21 22 22
7 5 3 4 2 4 7 18 22 16 9 18 16 31 2 6 11 16 12 17 20 18 18 17 17 20 24 29 27 25 22 19 19 20 19 17 16 16 14 13 14 17 18 18
7 6 2 3 3 3 6 4 10 19 23 22 18 26 16 13 15 10 11 18 19 18 19 18 18 23 27 33 30 26 24 23 22 21 21 20 18 17 17 16 15 13 14 15
5 5 3 4 4 7 6 6 7 8 9 20 24 28 26 9 4 15 10 14 20 20 19 24 31 31 32 37 35 31 28 26 25 25 24 23 22 20 19 18 19 17 16 14
3 1 5 3 5 7 6 2 3 5 6 2 11 19 13 7 8 5 9 9 15 16 24 25 29 29 32 35 39 37 34 31 30 29 28 26 24 23 22 20 18 17 15 15
6 3 11 4 5 8 12 6 1 4 5 1 2 4 6 7 9 3 4 4 7 17 22 27 32 32 35 38 41 34 34 35 36 32 28 27 25 24 23 22 21 19 18 17
12 10 6 4 5 11 9 6 8 6 3 4 3 2 0 6 4 3 3 1 8 11 18 27 27 27 32 41 42 33 34 41 37 33 31 29 28 26 25 24 22 21 20 19
6 7 8 13 10 3 8 5 10 3 3 4 3 1 2 4 5 5 3 2 5 8 17 26 27 25 30 39 40 34 39 40 38 36 35 32 29 28 27 26 25 24 23 23
4 7 3 3 8 12 8 8 7 5 8 5 6 5 3 5 6 7 5 4 4 7 13 23 24 23 25 34 38 42 40 42 41 41 38 35 33 31 29 28 28 28 29 27
6 12 7 7 6 7 9 10 11 10 7 8 8 9 10 7 8 7 7 7 7 10 16 23 22 23 26 33 37 40 39 44 43 42 41 39 36 34 33 32 32 32 31 31
6 7 8 9 7 10 13 7 10 9 12 12 10 8 10 9 10 6 8 7 9 11 19 21 23 23 27 34 36 41 41 45 44 37 39 40 40 37 35 34 30 31 29 29
Wind_Direction
252 85 206 218 201 182 124 255 287 252 192 260 237 269 265 250 199 206 223 241 211 145 83 30 8 352 349 348 342 340 329 328 327 325 314 298 284 278 275 265 257 252 239 245
39 220 203 124 114 106 73 77 274 293 171 247 293 279 277 234 205 191 200 217 187 119 36 13 1 354 356 348 349 344 334 336 335 333 315 294 281 277 270 265 257 257 233 226
172 196 158 118 124 143 192 160 239 237 329 279 318 295 337 355 144 174 188 168 157 121 75 9 2 355 355 352 352 341 338 340 338 351 337 324 304 286 269 256 254 241 221 208
218 172 150 141 213 162 220 127 156 302 36 266 47 284 307 294 212 191 195 178 191 120 71 24 1 353 357 353 355 350 345 349 352 4 351 347 279 274 273 289 262 241 216 200
215 161 164 179 212 147 181 136 146 62 300 349 332 66 272 296 259 237 213 207 156 134 101 60 14 359 358 359 1 352 355 360 4 13 12 9 359 37 1 300 240 220 195 195
121 150 157 148 58 75 151 125 92 35 82 12 243 127 284 223 214 231 173 174 153 134 111 79 26 9 5 7 9 8 5 10 13 22 21 31 15 39 54 75 96 130 174 170
134 197 106 132 88 19 77 70 351 352 3 226 186 91 249 260 217 200 167 154 154 131 129 101 34 15 11 7 7 9 12 16 21 27 31 38 38 58 57 55 88 108 97 122
157 285 175 184 200 181 181 165 161 215 257 283 55 237 251 284 159 147 141 148 143 140 153 124 92 41 25 13 10 19 25 22 30 36 35 47 47 66 65 64 71 78 90 89
151 116 45 65 11 126 172 192 190 106 41 42 228 276 286 67 150 126 133 145 163 163 167 143 122 70 47 31 18 27 36 39 38 48 38 60 60 66 73 79 83 76 84 93
102 108 159 244 58 61 140 179 71 360 155 275 283 268 242 234 221 201 176 182 177 164 167 148 141 111 79 57 36 42 51 48 47 60 47 56 71 78 80 88 84 87 92 99
107 103 220 117 201 181 148 221 189 146 167 194 287 266 206 242 215 203 201 185 178 168 170 162 156 134 113 90 66 52 53 60 59 59 71 67 61 76 89 90 94 97 101 102
146 133 181 203 157 146 180 192 171 150 219 230 134 273 330 339 248 174 195 181 176 170 164 159 163 146 144 118 99 76 58 73 66 73 78 79 79 71 79 90 92 98 100 106
171 226 50 340 354 344 205 193 184 116 83 209 154 256 325 323 346 179 185 183 169 162 160 159 160 156 165 150 133 113 95 89 87 83 77 74 74 77 81 90 94 98 100 102
114 148 192 194 182 118 193 196 189 160 166 186 231 278 232 231 236 243 201 181 172 171 169 168 164 170 173 172 157 138 129 120 112 105 96 89 87 92 94 94 95 97 98 100
128 193 199 245 233 204 203 198 193 205 222 195 211 225 246 245 216 219 211 182 173 179 175 178 174 174 175 181 169 154 150 144 132 120 111 103 101 99 103 106 106 106 107 107
125 199 116 293 242 221 242 220 220 218 232 239 248 271 249 240 229 205 193 186 193 190 188 182 177 173 178 184 180 169 163 163 155 142 132 127 122 113 107 108 111 115 114 116
155 149 142 254 321 355 300 223 218 221 214 223 226 244 125 250 231 232 202 195 198 196 188 183 183 180 182 186 186 179 173 172 168 157 151 148 144 135 125 117 120 120 121 125
150 151 135 228 18 268 236 186 219 223 236 227 246 258 245 244 251 235 208 199 202 195 191 188 183 183 183 186 187 181 179 178 177 171 163 163 159 153 150 145 141 133 130 129
172 149 161 162 210 304 281 226 173 178 259 229 233 251 255 259 308 258 214 205 201 194 191 189 183 184 180 184 183 182 181 183 184 182 177 174 172 168 165 163 158 153 147 138
162 95 162 139 180 227 241 238 210 162 291 283 217 250 262 152 229 262 214 192 203 195 185 178 179 177 177 181 183 181 184 186 192 192 187 183 181 178 176 173 168 163 162 157
164 172 204 184 243 277 250 199 186 117 231 165 217 256 226 196 229 238 309 235 191 179 174 174 173 177 182 180 180 179 183 190 196 195 193 189 189 188 184 178 177 174 168 166
173 166 185 172 218 267 177 80 177 211 197 188 217 238 88 250 242 257 330 284 168 164 162 169 173 180 180 182 180 180 188 197 194 193 196 196 192 192 190 187 181 181 179 179
209 183 175 191 208 222 204 224 229 190 199 199 221 197 259 264 220 219 252 251 185 170 167 171 174 173 182 185 186 183 196 195 192 191 196 199 197 195 196 192 187 183 188 188
237 214 230 115 239 228 226 250 236 224 229 236 242 246 232 252 247 238 208 192 189 172 172 174 169 175 182 191 194 201 194 194 192 192 196 199 200 198 199 199 199 195 193 196
183 158 176 263 274 324 263 237 241 253 223 228 232 231 243 226 247 226 239 209 190 191 185 182 183 186 191 192 199 203 201 193 192 195 197 198 202 202 202 204 204 206 211 210
181 177 185 221 204 205 244 234 236 223 244 238 227 246 242 207 235 215 234 222 199 188 194 190 195 190 193 198 200 206 205 197 192 192 198 199 201 204 207 206 207 215 220 222